EW6304 Weather Reports


time (UTC)temp
C
wind
direction
speed
KPH
gust
KPH
rain 1hr
cm
rain 24hr
cm
rain mn
cm
humidity
%
barometer
mb
20260507212202 18 257 4.8 14.5 0.00 0.89 0.76 33 1003.9
20260507211707 18 238 4.8 14.5 0.00 0.89 0.76 32 1003.8
20260507211703 18 250 4.8 14.5 0.00 0.89 0.76 34 1003.9
20260507210705 18 267 4.8 16.1 0.00 0.89 0.76 32 1003.8
20260507210701 18 257 4.8 16.1 0.00 0.89 0.76 33 1003.8
20260507205658 18 305 6.4 20.9 0.00 0.89 0.76 33 1003.8
20260507205158 18 312 6.4 20.9 0.00 0.89 0.76 32 1003.7
20260507204658 18 257 4.8 14.5 0.00 0.89 0.76 34 1003.8
20260507204158 18 277 6.4 19.3 0.00 0.89 0.76 33 1003.9
20260507203656 18 326 8.0 19.3 0.00 0.89 0.76 33 1003.8
20260507203157 18 294 8.0 19.3 0.00 0.89 0.76 32 1003.8
20260507202656 18 281 8.0 19.3 0.00 0.89 0.76 34 1003.7
20260507202157 18 322 6.4 19.3 0.00 0.89 0.76 34 1003.8
20260507201657 18 255 4.8 14.5 0.00 0.89 0.76 35 1003.7
20260507201203 18 245 4.8 11.3 0.00 0.89 0.76 31 1003.8
20260507201157 18 307 4.8 14.5 0.00 0.89 0.76 31 1003.7
20260507200815 18 263 6.4 16.1 0.00 0.91 0.76 31 1003.9
20260507200156 18 252 6.4 17.7 0.00 0.89 0.76 32 1003.8
20260507195654 18 278 6.4 17.7 0.00 0.91 0.76 33 1003.8
20260507194658 18 305 9.7 27.4 0.00 0.94 0.76 33 1004.0
20260507194652 18 317 8.0 19.3 0.00 0.94 0.76 33 1003.9
20260507194152 18 269 8.0 19.3 0.00 0.94 0.76 31 1004.0
20260507193150 18 323 9.7 27.4 0.00 0.94 0.76 33 1004.1
20260507192650 18 277 4.8 19.3 0.00 0.94 0.76 35 1004.1
20260507192150 18 348 4.8 16.1 0.00 0.94 0.76 35 1004.1
20260507191651 18 266 6.4 19.3 0.00 0.94 0.76 37 1004.2
20260507191150 18 254 6.4 19.3 0.00 0.94 0.76 36 1004.3
20260507190651 18 319 6.4 22.5 0.00 0.94 0.76 40 1004.2
20260507190150 18 296 6.4 22.5 0.00 0.94 0.76 38 1004.3
20260507185651 18 296 4.8 14.5 0.00 0.94 0.76 38 1004.4
20260507185151 19 285 4.8 19.3 0.00 0.94 0.76 43 1004.5
20260507184656 18 313 8.0 19.3 0.00 0.94 0.76 42 1004.6
20260507184650 18 303 6.4 19.3 0.00 0.94 0.76 44 1004.5
20260507183649 18 338 8.0 19.3 0.00 0.94 0.76 39 1004.7
20260507183151 18 215 6.4 16.1 0.00 0.94 0.76 41 1004.6
20260507182649 18 237 6.4 17.7 0.00 0.94 0.76 41 1004.7
20260507182149 18 314 6.4 17.7 0.00 0.94 0.76 39 1004.8
20260507181655 18 263 6.4 19.3 0.00 0.94 0.76 48 1004.9
20260507181651 18 329 6.4 19.3 0.00 0.94 0.76 40 1004.8
20260507180651 18 313 6.4 16.1 0.00 0.94 0.76 42 1004.9
20260507180154 18 325 4.8 20.9 0.00 0.94 0.76 40 1005.0
20260507180149 18 325 6.4 20.9 0.00 0.94 0.76 42 1005.0
20260507175149 18 263 4.8 12.9 0.00 0.94 0.76 43 1005.0
20260507174655 18 254 6.4 14.5 0.00 0.94 0.76 41 1005.0
20260507174649 18 334 4.8 14.5 0.00 0.94 0.76 47 1004.9
20260507173649 18 310 6.4 16.1 0.00 0.94 0.76 46 1005.0
20260507173147 18 348 4.8 16.1 0.00 0.94 0.76 51 1004.9
20260507172647 17 319 4.8 14.5 0.00 0.94 0.76 50 1004.9
20260507172147 18 242 6.4 17.7 0.00 0.94 0.76 50 1005.1
20260507171652 18 220 4.8 17.7 0.00 0.94 0.76 51 1005.2
20260507171647 17 276 4.8 17.7 0.00 0.94 0.76 50 1005.2
20260507170648 18 260 4.8 17.7 0.00 0.94 0.76 53 1005.3
20260507170147 18 291 6.4 17.7 0.00 0.94 0.76 50 1005.3
20260507165651 17 258 6.4 17.7 0.00 0.94 0.76 52 1005.3
20260507165646 17 268 6.4 17.7 0.00 0.94 0.76 54 1005.2
20260507164651 17 0 4.8 17.7 0.00 0.94 0.76 53 1005.4
20260507164645 17 332 6.4 17.7 0.00 0.94 0.76 53 1005.4
20260507163646 17 275 3.2 16.1 0.00 0.94 0.76 56 1005.4
20260507163148 16 305 3.2 11.3 0.00 0.94 0.76 60 1005.5
20260507162645 16 288 4.8 9.7 0.00 0.94 0.76 59 1005.8
20260507162145 16 331 4.8 11.3 0.00 0.94 0.76 58 1005.8
20260507161806 17 323 4.8 14.5 0.00 0.94 0.76 60 1005.9
20260507161649 17 252 4.8 11.3 0.00 0.94 0.76 58 1005.8
20260507161645 16 294 4.8 11.3 0.00 0.94 0.76 61 1005.7
20260507160143 16 312 4.8 14.5 0.00 0.94 0.76 60 1005.9
20260507155645 16 290 4.8 12.9 0.00 0.94 0.76 61 1006.0
20260507155143 16 225 6.4 14.5 0.00 0.94 0.76 62 1006.1
20260507154643 16 327 6.4 14.5 0.00 0.94 0.76 60 1006.2
20260507154144 16 333 4.8 12.9 0.00 0.94 0.76 60 1006.2
20260507153643 16 302 3.2 11.3 0.00 0.94 0.76 60 1006.3
20260507153143 16 243 3.2 11.3 0.00 0.94 0.76 59 1006.2
20260507152645 16 232 4.8 12.9 0.00 0.94 0.76 60 1006.2
20260507152144 15 251 4.8 12.9 0.00 0.94 0.76 62 1006.3
20260507151642 15 97 6.4 16.1 0.00 0.94 0.76 61 1006.3
20260507151141 15 300 4.8 16.1 0.00 0.94 0.76 60 1006.4
20260507150642 15 276 3.2 14.5 0.00 0.94 0.76 59 1006.4
20260507150149 15 328 4.8 17.7 0.00 0.94 0.76 67 1006.6
20260507150143 15 244 4.8 12.9 0.00 0.94 0.76 63 1006.5
20260507145142 15 224 4.8 17.7 0.00 0.94 0.76 67 1006.6
20260507144642 14 320 4.8 17.7 0.00 0.94 0.76 66 1006.5
20260507144142 15 303 4.8 14.5 0.00 0.94 0.76 69 1006.5
20260507143642 14 251 3.2 14.5 0.00 0.94 0.76 69 1006.4
20260507143139 14 273 3.2 11.3 0.00 0.94 0.76 72 1006.6
20260507142639 14 321 4.8 17.7 0.00 0.94 0.76 71 1006.7
20260507142140 14 288 4.8 17.7 0.00 0.94 0.76 70 1006.7
20260507141646 14 43 4.8 16.1 0.00 0.94 0.76 73 1006.7
20260507141640 14 316 3.2 9.7 0.00 0.94 0.76 73 1006.7
20260507140637 13 292 6.4 17.7 0.00 0.94 0.76 74 1006.8
20260507140137 13 305 6.4 17.7 0.00 0.94 0.76 74 1006.9
20260507135650 12 322 6.4 17.7 0.00 0.94 0.76 80 1006.9
20260507135636 13 237 4.8 14.5 0.00 0.94 0.76 77 1006.8
20260507135138 13 209 3.2 9.7 0.00 0.94 0.76 78 1006.7
20260507134636 13 355 4.8 17.7 0.00 0.94 0.76 82 1006.7
20260507134257 12 232 4.8 16.1 0.00 0.94 0.76 83 1006.9
20260507133138 12 304 3.2 11.3 0.00 0.94 0.76 86 1006.9
20260507132637 12 341 4.8 14.5 0.00 0.94 0.76 89 1006.8
20260507132137 11 339 4.8 14.5 0.00 0.94 0.76 89 1006.7
20260507131636 11 325 4.8 12.9 0.00 0.94 0.76 91 1006.9
20260507131136 11 275 4.8 12.9 0.00 0.94 0.76 92 1007.1
20260507130637 11 304 3.2 11.3 0.00 0.94 0.76 93 1007.0
20260507130138 11 0 3.2 11.3 0.00 0.94 0.76 94 1006.9
20260507125635 10 315 3.2 8.0 0.00 0.94 0.76 94 1006.9
20260507125135 10 287 3.2 9.7 0.00 0.94 0.76 94 1006.9
20260507124634 10 262 3.2 11.3 0.00 0.94 0.76 94 1006.9
20260507124134 10 222 1.6 11.3 0.00 0.94 0.76 94 1006.9
20260507123634 10 300 1.6 6.4 0.00 0.94 0.76 94 1007.0
20260507123135 10 291 1.6 4.8 0.00 0.94 0.76 95 1007.4
20260507122632 10 291 1.6 4.8 0.00 0.94 0.76 95 1007.2
20260507122134 10 291 1.6 4.8 0.03 0.94 0.76 95 1007.3
20260507121632 10 301 0.0 1.6 0.05 0.94 0.76 94 1007.3
20260507121134 10 301 0.0 1.6 0.08 0.94 0.76 94 1007.0
20260507120638 10 301 0.0 1.6 0.10 0.94 0.76 94 1006.8
20260507120634 10 301 0.0 1.6 0.10 0.94 0.76 95 1006.9
20260507115634 10 301 0.0 1.6 0.13 0.94 0.76 94 1006.9
20260507115132 9 301 0.0 1.6 0.13 0.94 0.76 94 1007.0
20260507114638 9 301 1.6 3.2 0.13 0.94 0.76 94 1006.7
20260507114634 9 301 0.0 1.6 0.13 0.94 0.76 94 1006.9
20260507113634 9 301 1.6 3.2 0.13 0.94 0.76 94 1007.1
20260507113137 9 301 1.6 4.8 0.13 0.94 0.76 93 1006.4
20260507113132 9 301 1.6 1.6 0.13 0.94 0.76 94 1007.0
20260507112132 9 301 1.6 4.8 0.10 0.91 0.76 93 1006.4
20260507111638 9 293 1.6 4.8 0.05 0.86 0.69 93 1006.9
20260507111633 9 306 1.6 4.8 0.08 0.89 0.74 93 1006.9
20260507110632 9 260 1.6 4.8 0.03 0.84 0.69 93 1006.9
20260507110132 9 260 1.6 8.0 0.05 0.84 0.66 93 1006.9
20260507105635 9 248 1.6 8.0 0.05 0.81 0.64 93 1006.5
20260507105134 9 308 1.6 6.4 0.05 0.81 0.64 93 1006.5
20260507104638 9 313 3.2 8.0 0.05 0.81 0.64 93 1006.5
20260507104632 9 305 1.6 4.8 0.05 0.81 0.64 93 1006.3
20260507104133 9 294 3.2 8.0 0.05 0.81 0.64 93 1006.4
20260507103133 9 279 1.6 4.8 0.08 0.81 0.64 93 1006.6
20260507102630 9 311 1.6 6.4 0.08 0.81 0.64 93 1006.6
20260507102130 9 321 1.6 6.4 0.08 0.81 0.64 93 1006.9
20260507101632 10 271 1.6 6.4 0.08 0.81 0.64 93 1007.0
20260507101131 10 254 3.2 11.3 0.08 0.81 0.64 93 1006.7
20260507100629 10 331 3.2 11.3 0.08 0.81 0.64 93 1006.5
20260507100128 10 302 3.2 11.3 0.05 0.79 0.61 93 1006.5
20260507095629 10 302 3.2 6.4 0.05 0.76 0.58 93 1006.3
20260507095128 10 0 3.2 8.0 0.05 0.76 0.58 93 1006.5
20260507094634 10 0 3.2 12.9 0.05 0.76 0.58 93 1006.2
20260507094629 10 0 3.2 8.0 0.05 0.76 0.58 93 1006.2
20260507093631 10 295 3.2 12.9 0.08 0.76 0.58 93 1006.2
20260507093129 10 294 3.2 9.7 0.08 0.74 0.56 93 1006.2
20260507092636 10 309 1.6 6.4 0.10 0.74 0.56 93 1006.2
20260507092630 10 272 1.6 9.7 0.08 0.74 0.56 93 1006.2
20260507091626 10 309 1.6 6.4 0.18 0.74 0.56 93 1006.4
20260507091129 10 324 1.6 4.8 0.28 0.74 0.56 93 1006.3
20260507090626 10 324 1.6 8.0 0.30 0.74 0.56 93 1006.0
20260507090131 10 297 3.2 8.0 0.36 0.71 0.53 93 1005.6
20260507090126 10 324 3.2 8.0 0.36 0.74 0.56 93 1005.8
20260507085127 10 300 4.8 11.3 0.38 0.71 0.53 93 1005.8
20260507084628 11 319 4.8 14.5 0.43 0.71 0.53 92 1006.0
20260507084131 11 308 3.2 14.5 0.46 0.71 0.53 93 1005.9
20260507084125 11 0 3.2 6.4 0.48 0.69 0.51 93 1005.7
20260507083124 11 0 1.6 6.4 0.48 0.66 0.48 93 1005.9
20260507082632 11 0 6.4 16.1 0.38 0.56 0.38 92 1006.0
20260507082627 11 0 3.2 8.0 0.48 0.66 0.48 93 1005.2
20260507082125 11 0 3.2 16.1 0.46 0.64 0.46 92 1005.8
20260507081125 11 306 4.8 16.1 0.28 0.46 0.30 92 1006.0
20260507080624 12 313 4.8 17.7 0.23 0.41 0.23 92 1005.8
20260507080123 12 304 4.8 17.7 0.20 0.38 0.20 92 1006.0
20260507075624 12 320 4.8 14.5 0.18 0.36 0.18 92 1005.9
20260507075125 12 269 4.8 14.5 0.15 0.33 0.15 92 1005.5
20260507074622 12 296 4.8 11.3 0.10 0.28 0.13 92 1005.4
20260507074124 13 277 4.8 11.3 0.08 0.25 0.08 92 1005.6
20260507073624 13 251 4.8 16.1 0.03 0.20 0.03 93 1005.2
20260507073121 13 320 3.2 16.1 0.00 0.18 0.00 94 1004.7
20260507072622 13 292 3.2 6.4 0.00 0.18 0.00 94 1004.6
20260507072127 13 290 1.6 4.8 0.00 0.18 0.00 96 1004.8
20260507072123 13 292 1.6 4.8 0.00 0.18 0.00 95 1004.6
20260507071123 13 292 3.2 12.9 0.00 0.18 0.00 96 1004.6
20260507070623 13 262 3.2 12.9 0.00 0.18 0.00 96 1004.6
20260507070123 13 325 3.2 9.7 0.00 0.18 0.00 96 1004.8
20260507065621 13 230 1.6 9.7 0.00 0.18 0.00 96 1004.8
20260507065120 14 311 0.0 1.6 0.00 0.18 0.00 96 1004.7
20260507064622 14 311 0.0 1.6 0.00 0.18 0.00 96 1004.6
20260507064126 14 311 0.0 1.6 0.00 0.18 0.00 96 1004.6
20260507064122 14 311 0.0 1.6 0.00 0.18 0.00 96 1004.7
20260507063621 14 311 0.0 1.6 0.00 0.18 0.00 96 1004.7
20260507062622 14 311 0.0 1.6 0.00 0.18 0.00 96 1004.7
20260507062120 14 311 0.0 0.0 0.00 0.18 0.00 96 1004.7
20260507061620 14 311 0.0 1.6 0.00 0.18 0.00 96 1004.9
20260507061122 14 311 0.0 3.2 0.00 0.18 0.00 96 1004.9
20260507060620 14 311 0.0 3.2 0.00 0.18 0.00 96 1004.9
20260507060118 14 311 0.0 3.2 0.00 0.18 0.00 96 1005.0
20260507055620 14 311 0.0 3.2 0.00 0.18 0.00 96 1005.2
20260507055118 14 311 1.6 4.8 0.00 0.18 0.00 96 1005.3
20260507054616 14 311 1.6 6.4 0.00 0.18 0.00 96 1005.1
20260507054126 14 342 1.6 4.8 0.00 0.18 0.00 96 1005.3
20260507054116 14 309 1.6 6.4 0.00 0.18 0.00 96 1005.4
20260507053620 14 342 1.6 4.8 0.00 0.18 0.00 96 1005.1
20260507052615 14 115 1.6 4.8 0.00 0.18 0.00 96 1005.3
20260507052115 14 117 0.0 3.2 0.00 0.18 0.00 96 1005.2
20260507051615 14 117 0.0 1.6 0.00 0.18 0.00 96 1005.3
20260507051119 14 117 0.0 3.2 0.00 0.18 0.00 96 1005.5
20260507051115 14 117 0.0 3.2 0.00 0.18 0.00 96 1005.4
20260507050114 14 117 1.6 3.2 0.00 0.18 0.00 96 1005.5
20260507045615 14 118 1.6 4.8 0.00 0.18 0.00 96 1005.4
20260507045115 14 355 0.0 4.8 0.00 0.18 0.00 96 1005.6
20260507044616 14 355 0.0 3.2 0.00 0.18 0.00 96 1005.5
20260507044115 13 355 0.0 3.2 0.00 0.18 0.00 96 1005.5
20260507043615 13 355 0.0 3.2 0.00 0.18 0.00 96 1005.5
20260507043120 13 355 0.0 3.2 0.00 0.18 0.00 96 1005.2
20260507043116 13 355 0.0 3.2 0.00 0.18 0.00 96 1005.4
20260507042614 13 355 0.0 3.2 0.00 0.18 0.00 96 1005.3
20260507041614 13 355 0.0 3.2 0.00 0.18 0.00 96 1005.4
20260507041120 13 0 1.6 3.2 0.00 0.18 0.00 96 1005.3
20260507041115 13 355 1.6 3.2 0.00 0.18 0.00 96 1005.5
20260507040732 13 0 1.6 4.8 0.00 0.18 0.00 96 1005.4
20260507035616 13 0 1.6 4.8 0.00 0.18 0.18 96 1005.4
20260507035115 13 38 1.6 6.4 0.00 0.18 0.18 96 1005.5
20260507034615 13 355 1.6 6.4 0.00 0.18 0.18 96 1005.6
20260507034117 13 294 1.6 8.0 0.00 0.18 0.18 96 1005.8
20260507034112 13 350 1.6 8.0 0.00 0.18 0.18 96 1005.7
20260507033730 13 323 1.6 8.0 0.00 0.18 0.18 96 1005.5
20260507033111 13 323 1.6 8.0 0.00 0.18 0.18 96 1005.7
20260507032109 13 28 1.6 6.4 0.00 0.18 0.18 96 1005.4
20260507031609 13 28 1.6 8.0 0.00 0.18 0.18 96 1005.5
20260507031109 13 53 1.6 8.0 0.00 0.18 0.18 96 1005.4
20260507030609 13 327 1.6 6.4 0.00 0.18 0.18 96 1005.3
20260507030109 13 85 1.6 3.2 0.00 0.18 0.18 96 1005.3
20260507025611 13 95 1.6 8.0 0.00 0.18 0.18 96 1005.3
20260507025110 13 95 3.2 9.7 0.00 0.18 0.18 96 1005.2
20260507024609 13 277 1.6 9.7 0.00 0.18 0.18 96 1005.4
20260507024109 13 75 1.6 4.8 0.00 0.18 0.18 96 1005.3
20260507023614 13 26 1.6 6.4 0.00 0.18 0.18 96 1005.0
20260507023608 13 22 1.6 4.8 0.00 0.18 0.18 96 1005.1
20260507022607 13 121 1.6 6.4 0.00 0.18 0.18 96 1005.0
20260507022106 13 63 1.6 6.4 0.00 0.18 0.18 96 1005.3
20260507021606 13 42 1.6 6.4 0.00 0.18 0.18 96 1005.3
20260507021105 13 355 1.6 6.4 0.00 0.18 0.18 96 1005.4
20260507020607 13 84 1.6 6.4 0.00 0.18 0.18 96 1005.4
20260507020112 13 113 1.6 8.0 0.00 0.18 0.18 96 1005.5
20260507020107 13 114 1.6 8.0 0.00 0.18 0.18 96 1005.6
20260507015105 13 99 1.6 6.4 0.00 0.18 0.18 96 1005.9
20260507014607 13 72 1.6 6.4 0.00 0.18 0.18 95 1005.9
20260507014107 13 73 1.6 6.4 0.00 0.18 0.18 95 1005.7
20260507013606 13 327 1.6 6.4 0.00 0.18 0.18 95 1005.9
20260507013106 13 0 1.6 4.8 0.00 0.18 0.18 95 1005.9
20260507012603 13 336 1.6 4.8 0.00 0.18 0.18 95 1005.9
20260507012111 13 333 1.6 4.8 0.00 0.18 0.18 95 1006.0
20260507012105 13 333 1.6 3.2 0.00 0.18 0.18 95 1006.0
20260507011111 13 308 1.6 8.0 0.00 0.18 0.18 95 1006.0
20260507011106 13 316 1.6 4.8 0.00 0.18 0.18 95 1006.1
20260507010604 13 315 1.6 8.0 0.00 0.18 0.18 95 1006.1
20260507005608 13 46 1.6 8.0 0.03 0.18 0.18 95 1006.0
20260507005604 13 76 1.6 8.0 0.03 0.18 0.18 95 1006.0
20260507004603 13 123 3.2 8.0 0.03 0.18 0.18 95 1006.1
20260507004109 13 67 3.2 12.9 0.03 0.18 0.18 95 1005.9
20260507004104 13 204 3.2 8.0 0.03 0.18 0.18 95 1005.9
20260507003103 13 42 3.2 14.5 0.03 0.18 0.18 95 1006.0
20260507002601 13 65 3.2 14.5 0.03 0.18 0.18 95 1006.0
20260507002101 13 59 3.2 12.9 0.03 0.18 0.18 95 1006.0
20260507001603 13 61 3.2 12.9 0.03 0.18 0.18 95 1005.9
20260507001100 13 63 3.2 9.7 0.03 0.18 0.18 95 1005.8
20260507000600 13 49 3.2 9.7 0.03 0.18 0.18 95 1005.8
20260507000100 13 355 1.6 11.3 0.03 0.18 0.18 95 1005.8
20260506235600 13 36 3.2 12.9 0.00 0.15 0.15 95 1005.7
20260506235100 13 41 3.2 12.9 0.00 0.15 0.15 95 1005.6
20260506234605 13 32 3.2 12.9 0.03 0.15 0.15 94 1005.9
20260506234600 13 101 3.2 12.9 0.00 0.15 0.15 95 1005.8
20260506234219 13 75 3.2 11.3 0.03 0.15 0.15 94 1005.8
20260506233101 13 9 3.2 12.9 0.03 0.15 0.15 94 1005.9
20260506232606 13 69 3.2 17.7 0.08 0.15 0.15 94 1006.0
20260506232600 13 49 3.2 17.7 0.05 0.15 0.15 94 1005.8
20260506232217 13 49 3.2 14.5 0.08 0.15 0.15 94 1006.1
20260506231558 13 90 3.2 14.5 0.08 0.15 0.15 94 1006.0
20260506230600 14 88 1.6 9.7 0.10 0.15 0.15 94 1006.0
20260506230105 14 107 3.2 12.9 0.10 0.15 0.15 94 1005.9
20260506230100 14 119 3.2 12.9 0.10 0.15 0.15 94 1005.9
20260506225104 14 52 1.6 6.4 0.10 0.15 0.15 94 1005.8
20260506225059 14 86 1.6 8.0 0.10 0.15 0.15 94 1005.8
20260506224059 14 48 3.2 11.3 0.08 0.13 0.15 93 1005.9
20260506223559 14 174 3.2 11.3 0.08 0.13 0.13 93 1005.8
20260506223109 14 150 3.2 16.1 0.05 0.10 0.10 93 1006.2
20260506223058 14 71 3.2 8.0 0.08 0.13 0.13 93 1005.9
20260506222056 14 57 3.2 16.1 0.03 0.08 0.08 93 1006.2
20260506221558 14 186 3.2 14.5 0.03 0.08 0.08 93 1006.4
20260506221058 14 49 3.2 12.9 0.03 0.08 0.08 93 1006.3
20260506220557 14 65 3.2 12.9 0.00 0.05 0.05 93 1006.3
20260506220057 15 91 3.2 9.7 0.00 0.05 0.05 93 1006.3
20260506215603 15 171 3.2 9.7 0.00 0.05 0.05 92 1006.4
20260506215556 15 199 3.2 9.7 0.00 0.05 0.05 93 1006.5
20260506214559 15 9 3.2 11.3 0.00 0.05 0.05 92 1006.4
20260506214104 15 38 3.2 14.5 0.00 0.05 0.05 92 1006.4
20260506214057 15 152 3.2 16.1 0.00 0.05 0.05 92 1006.6
20260506213558 15 116 3.2 16.1 0.00 0.05 0.05 92 1006.5
20260506213214 15 157 3.2 14.5 0.00 0.05 0.05 92 1006.5
20260506212713 15 348 4.8 22.5 0.00 0.05 0.05 92 1006.7